Home > Weather > Augsburg > Past weeks

Flag for Germany Past Weather in Augsburg, Bavaria, Germany — Yesterday and Last 2 Weeks

Now
55 °F

Clear.


Feels Like: 54 °F
Forecast: 53 / 77 °F
Wind: 6 mph from Northwest

Location: Augsburg Airport

Current Time: Aug 30, 2016 at 7:16:06 AM

Latest Report: Aug 30, 2016 at 6:50 AM


Visibility: 10 mi

Pressure: 30.21 "Hg

Humidity: 100%

Dew Point: 55 °F

Location of AugsburgLocation

Past Weather in Augsburg — Graph

°F

Augsburg Temperature Yesterday

Maximum temperature yesterday: 75 °F (at 4:20 PM)
Minimum temperature yesterday: 63 °F (at 7:20 AM)
Average temperature yesterday: 67 °F

High & Low Weather Summary for the Past Weeks

 TemperatureHumidityPressure
High88 °F (Aug 26, 4:20 PM)100% (Aug 16, 6:20 AM)30.42 "Hg (Aug 16, 6:20 AM)
Low48 °F (Aug 22, 6:50 AM)22% (Aug 27, 4:20 PM)29.83 "Hg (Aug 18, 7:20 AM)
Average71 °F61%30.10 "Hg
* Reported Aug 15 8:50 AM — Aug 30 4:50 AM, Augsburg, Weather by CustomWeather, © 2016

Note: Actual official high and low records may vary slightly from our data, if they occured in-between our weather recording intervals... More about our weather records

Advertising

Augsburg Weather History for the Previous 24 Hours

Scroll right to see more
 ConditionsComfort  
Time TempWeatherWind HumidityBarometerVisibility
4:50 AM
Tue, Aug 30
57 °FClear.2 mph100%30.21 "Hg10 mi
4:20 AM57 °FClear.5 mph100%30.21 "Hg10 mi
3:50 AM59 °FClear.6 mph100%30.18 "Hg10 mi
3:20 AM59 °FClear.5 mph100%30.21 "Hg10 mi
2:50 AM59 °FClear.2 mph100%30.21 "Hg10 mi
2:20 AM59 °FClear.3 mph100%30.21 "Hg10 mi
1:50 AM59 °FLight fog.1 mph100%30.21 "HgN/A
1:20 AM59 °FClear.1 mph100%30.21 "Hg10 mi
12:50 AM59 °FLight fog.1 mph100%30.21 "HgN/A
12:20 AM63 °FClear.1 mph100%30.21 "Hg10 mi
11:50 PM
Mon, Aug 29
63 °FClear.1 mph100%30.18 "Hg10 mi
11:20 PM63 °FClear.2 mph100%30.18 "Hg10 mi
10:50 PM63 °FClear.1 mph100%30.18 "Hg10 mi
10:20 PM63 °FClear.2 mph100%30.18 "Hg10 mi
9:50 PM63 °FClear.2 mph100%30.18 "Hg10 mi
9:20 PM63 °FClear.1 mph100%30.18 "Hg10 mi
8:50 PM63 °FSunny.2 mph100%30.15 "Hg10 mi
8:20 PM64 °FSunny.3 mph100%30.15 "Hg10 mi
7:50 PM64 °FSunny.1 mph94%30.12 "Hg10 mi
7:20 PM64 °FSunny.2 mph94%30.12 "Hg10 mi
6:50 PM64 °FPassing showers. Scattered clouds.3 mph88%30.12 "HgN/A
6:20 PM64 °FPassing showers. Scattered clouds.6 mph88%30.12 "HgN/A
5:50 PM66 °FThundershowers. Scattered clouds.5 mph73%30.12 "Hg6 mi
5:20 PM66 °FSprinkles. Scattered clouds.7 mph68%30.12 "HgN/A
4:50 PM70 °FScattered clouds.12 mph64%30.12 "HgN/A
4:20 PM75 °FScattered clouds.8 mph54%30.12 "HgN/A
3:50 PM72 °FScattered clouds.8 mph61%30.12 "HgN/A
3:20 PM72 °FScattered clouds.7 mph61%30.12 "HgN/A
2:50 PM73 °FScattered clouds.7 mph57%30.12 "HgN/A
2:20 PM73 °FScattered clouds.5 mph57%30.12 "HgN/A
1:50 PM73 °FPassing clouds.8 mph57%30.15 "HgN/A
1:20 PM72 °FSunny.9 mph65%30.15 "Hg10 mi
12:50 PM70 °FSunny.7 mph69%30.15 "Hg10 mi
12:20 PM70 °FSunny.9 mph69%30.15 "Hg10 mi
11:50 AM66 °FPartly sunny.6 mph78%30.15 "HgN/A
11:20 AM64 °FThundershowers. Partly sunny.6 mph83%30.15 "HgN/A
10:50 AM66 °FThunderstorms. Scattered clouds.9 mph73%30.12 "HgN/A
10:20 AM70 °FSprinkles. Partly sunny.5 mph69%30.12 "HgN/A
9:50 AM68 °FPartly sunny.3 mph73%30.12 "HgN/A
9:20 AM68 °FPartly sunny.6 mph69%30.12 "HgN/A
8:50 AM70 °FBroken clouds.8 mph69%30.09 "HgN/A
8:20 AM68 °FBroken clouds.6 mph73%30.09 "HgN/A
7:50 AM66 °FSunny.2 mph78%30.09 "Hg10 mi
7:20 AM63 °FClear.2 mph83%30.09 "Hg10 mi
Weather by CustomWeather, © 2016

See weather overviewHow to use our weather pages